Location: Berlin
(38.3226°N, 75.2177°W)
Time: 17:59:32
(UTC+00:00)

CZ-2C R/B - Pass Details

Date: 26 October 2020
Orbit: 703 x 909 km, 98.1° (Epoch: 03 December)

Event Time Altitude Azimuth Distance (km) Brightness Sun altitude
Rises 00:15:46 0° 180° (S) 3,519 6.4 -25.5°
Reaches altitude 10° 00:18:15 10° 185° (S) 2,584 5.7 -26.0°
Maximum altitude 00:23:53 51° 261° (W) 1,127 4.1 -27.1°
Drops below altitude 10° 00:29:27 10° 336° (NNW) 2,555 6.0 -28.2°
Sets 00:31:55 0° 342° (NNW) 3,476 6.7 -28.6°
